Mazatlan Airport, Mexico

8:38 PM MDT on June 22, 2017 (GMT -0600)
Gen Rafael Buelna International

Weather History for MMMZ - December, 2013

Change the Weather History Date:

Sunday, December 8, 2013

  Actual Average Record
Temperature  
Mean Temperature 66 °F -  
Max Temperature 77 °F 80 °F 87 °F (2015)
Min Temperature 55 °F 56 °F 50 °F (1998)
Cooling Degree Days 1    
Growing Degree Days 16 (Base 50)    
Moisture  
Dew Point 52 °F    
Average Humidity 60    
Maximum Humidity 82    
Minimum Humidity 36    
Precipitation  
Precipitation 0.00 in - - ()
Sea Level Pressure  
Sea Level Pressure 29.98 in    
Wind  
Wind Speed 7 mph ()    
Max Wind Speed 15 mph    
Max Gust Speed -    
Visibility 12.3 miles    
Events      
Averages and records for this station are not official NWS values.
T = Trace of Precipitation, MM = Missing Value Source: Averaged Metar Reports

Daily Weather History Graph

Daily Weather History Graph

Search for Another Location

Airport or City:

Trip Planner

Search our weather history database for the weather conditions in past years. The results will help you decide how hot, cold, wet, or windy it might be!

Date:

Astronomy

Dec. 08, 2013 Rise Set
Actual Time 6:34 AM MST 5:19 PM MST
Civil Twilight 6:09 AM MST 5:44 PM MST
Nautical Twilight 5:42 AM MST 6:12 PM MST
Astronomical Twilight 5:14 AM MST 6:39 PM MST
Moon 11:27 AM MST (12/8) 11:37 PM MST (12/8)
Length of Visible Light 11h 34m
Length of Day
10h 45m
Waxing Crescent, 40% of the Moon is Illuminated
Dec 8
Waxing Crescent
Dec 9
First Quarter
Dec 17
Full
Dec 25
Last Quarter
Jan 1
New

Hourly Weather History & Observations

Time (MST) Temp. Dew Point Humidity Pressure Visibility Wind Dir Wind Speed Gust Speed Precip Events Conditions
12:41 AM 60.8 °F 48.2 °F 63% 30.00 in 10.0 mi NW 9.2 mph - N/A   Clear
1:52 AM 59.0 °F 48.2 °F 67% 29.99 in 10.0 mi WNW 8.1 mph - N/A   Clear
2:00 AM 67 °F 54 °F 53% 30.01 in - NW 4.5 mph - -  
2:45 AM 57.2 °F 48.2 °F 72% 29.98 in 10.0 mi NW 8.1 mph - N/A   Clear
3:50 AM 55.4 °F 46.4 °F 72% 29.98 in 10.0 mi North 8.1 mph - N/A   Clear
4:52 AM 55.4 °F 48.2 °F 77% 29.99 in 10.0 mi Calm Calm - N/A   Clear
5:00 AM 64 °F 54 °F 63% 30.01 in - NW 4.5 mph - -  
5:49 AM 55.4 °F 48.2 °F 77% 29.99 in 10.0 mi North 8.1 mph - N/A   Clear
6:44 AM 55.4 °F 48.2 °F 77% 30.01 in 12.0 mi Calm Calm - N/A   Partly Cloudy
7:41 AM 57.2 °F 51.8 °F 82% 30.01 in 15.0 mi Calm Calm - N/A   Scattered Clouds
8:00 AM 68 °F 52 °F 45% 30.04 in - NW 4.5 mph - -  
8:42 AM 66.2 °F 51.8 °F 60% 30.05 in 15.0 mi NW 8.1 mph - N/A   Scattered Clouds
9:44 AM 71.6 °F 50.0 °F 46% 30.05 in 15.0 mi WNW 6.9 mph - N/A   Scattered Clouds
10:48 AM 73.4 °F 50.0 °F 44% 30.04 in 15.0 mi WSW 9.2 mph - N/A   Scattered Clouds
11:00 AM 77 °F 55 °F 36% 30.06 in - West 6.7 mph - -  
11:41 AM 75.2 °F 51.8 °F 44% 30.01 in 15.0 mi SW 10.4 mph - N/A   Scattered Clouds
12:40 PM 77.0 °F 51.8 °F 41% 29.98 in 15.0 mi WSW 12.7 mph - N/A   Scattered Clouds
1:42 PM 77.0 °F 53.6 °F 44% 29.96 in 15.0 mi WSW 11.5 mph - N/A   Partly Cloudy
2:00 PM 77 °F 56 °F 37% 29.98 in - West 11.2 mph - -  
2:44 PM 77.0 °F 53.6 °F 44% 29.93 in 15.0 mi WSW 13.8 mph - N/A   Clear
3:45 PM 75.2 °F 53.6 °F 47% 29.92 in 15.0 mi West 12.7 mph - N/A   Clear
4:41 PM 71.6 °F 53.6 °F 53% 29.93 in 15.0 mi West 15.0 mph - N/A   Clear
5:00 PM 72 °F 59 °F 54% 29.96 in - WNW 8.9 mph - -  
5:41 PM 68.0 °F 53.6 °F 60% 29.95 in 12.0 mi West 11.5 mph - N/A   Clear
6:45 PM 66.2 °F 53.6 °F 64% 29.96 in 10.0 mi NW 8.1 mph - N/A   Clear
7:41 PM 62.6 °F 51.8 °F 68% 29.97 in 10.0 mi NW 8.1 mph - N/A   Clear
8:00 PM 69 °F 59 °F 61% 29.99 in - NW 8.9 mph - -  
8:42 PM 62.6 °F 51.8 °F 68% 29.98 in 10.0 mi WNW 8.1 mph - N/A   Clear
9:51 PM 59.0 °F 50.0 °F 72% 29.97 in 10.0 mi NW 6.9 mph - N/A   Clear
10:48 PM 57.2 °F 50.0 °F 77% 29.96 in 10.0 mi NNW 5.8 mph - N/A   Clear
11:00 PM 66 °F 55 °F 60% 29.99 in - NNW 2.2 mph - -  
11:43 PM 57.2 °F 50.0 °F 77% 29.66 in 10.0 mi North 4.6 mph - N/A   Clear